#timestamp,LO_Frequency,Hit,StdDev 
1657562415.7,286046998.6,N
1657562435.5,286046999.3,N
1657562455.3,286046996.5,N
1657562475.2,286046998.4,N
1657562495.0,286046998.9,N
1657562495.9,286046998.9,N
1657562515.8,286046998.5,N
1657562535.6,286046999.0,N
1657562555.4,286046999.3,N
1657562575.3,286046999.0,N
1657562595.1,286046999.3,N
1657562615.8,286046996.5,N
1657562635.7,286046997.0,N
1657562655.5,286046998.2,N
1657562675.4,286046999.5,N
1657562695.2,286046997.1,N
1657562715.0,286046995.3,Y
1657562715.9,286046995.3,P
1657562735.8,286046995.1,N
1657562755.6,286046996.3,N
1657562775.5,286046996.1,N
1657562795.3,286046993.7,Y
1657562815.1,286046998.4,P
1657562835.9,286046999.3,N
1657562855.7,286046998.9,N
1657562875.5,286046999.4,N
1657562895.4,286046999.5,N
1657562915.2,286046996.8,N
1657562935.1,286046997.0,N
1657562936.0,286046997.0,N
1657562955.8,286046996.8,N
1657562975.6,286046998.3,N
1657562995.5,286046999.4,N
1657563015.3,286046998.5,N
1657563035.1,286046999.6,N
1657563055.9,286046996.7,N
1657563075.7,286046998.0,N
1657563095.6,286046996.0,Y
1657563115.4,286046997.8,P
1657563135.2,286046994.9,P
1657563155.1,286046997.4,N
1657563156.0,286046997.4,N
1657563175.8,286046997.0,N
1657563195.6,286046999.6,N
1657563215.5,286047000.9,N
1657563235.3,286047000.7,N
1657563255.2,286046998.1,N
1657563275.9,286046998.8,N
1657563295.7,286046999.1,N
1657563315.6,286046997.3,N
1657563335.4,286046996.7,N
1657563355.2,286046996.7,N
1657563375.1,286046996.8,N
1657563376.0,286046996.8,N
1657563395.8,286046997.1,N
1657563415.7,286046997.0,N
1657563435.5,286046996.5,N
1657563455.3,286046999.3,N
1657563475.2,286046997.7,N
1657563495.0,286046999.5,N
1657563495.9,286046999.5,N
1657563515.7,286046999.3,N
1657563535.6,286046999.0,N
1657563555.4,286046996.5,N
1657563575.3,286046997.3,N
1657563595.1,286046997.3,N
1657563596.0,286046997.3,N
1657563615.8,286046997.7,N
1657563635.7,286046997.1,N
1657563655.5,286046997.0,N
1657563675.3,286046997.2,N
1657563695.2,286046996.7,N
1657563715.0,286046995.5,Y
1657563715.9,286046995.5,P
1657563735.8,286046999.2,N
1657563755.6,286046999.2,N
1657563775.4,286046999.6,N
1657563795.3,286046999.4,N
1657563815.1,286046998.6,N
1657563835.8,286046998.3,N
1657563855.7,286047001.2,N
1657563875.5,286046999.1,N
1657563895.4,286046999.2,N
1657563915.2,286046997.5,N
1657563935.0,286046997.2,N
1657563935.9,286046997.2,N
1657563955.8,286046997.4,N
1657563975.6,286046996.5,N
1657563995.5,286046999.1,N
1657564015.3,286046999.1,N
1657564035.1,286046996.9,N
1657564055.9,286046996.9,N
1657564075.7,286046997.5,N
1657564095.5,286046998.0,N
1657564115.4,286046997.5,N
1657564135.2,286046995.3,Y
1657564155.0,286046999.1,P
1657564156.0,286046999.1,N
1657564175.8,286046999.5,N
1657564195.6,286046998.6,N
1657564215.5,286046999.0,N
1657564235.3,286046996.9,Y
1657564255.1,286046998.6,P
1657564275.9,286046998.8,P
1657564295.7,286046999.1,P
1657564315.6,286047000.7,Y
1657564335.4,286046999.8,P
1657564355.2,286047001.5,P
1657564375.1,286047002.0,N
1657564376.0,286047002.0,N
1657564395.8,286047002.3,N
1657564415.7,286047002.7,N
1657564435.5,286047000.6,N
1657564455.3,286047000.5,N
1657564475.2,286047001.0,N
1657564495.9,286047000.6,N
1657564515.7,286046999.8,N
1657564535.6,286047001.2,N
1657564555.4,286047001.2,N
1657564575.2,286046998.3,N
1657564595.1,286046998.7,N
1657564596.0,286046998.7,N
1657564615.8,286047001.2,N
1657564635.7,286046998.3,N
1657564655.5,286046998.5,N
1657564675.3,286046998.3,N
1657564695.2,286046998.6,N
1657564715.0,286047001.2,N
1657564715.9,286047001.2,N
1657564735.8,286046998.2,N
1657564755.6,286047000.1,N
1657564775.4,286046999.9,N
1657564795.3,286047002.4,N
1657564815.1,286047000.8,N
1657564835.8,286046998.3,N
1657564855.7,286047000.9,N
1657564875.5,286046998.1,N
1657564895.4,286046999.0,N
1657564915.2,286046998.5,N
1657564935.0,286046998.9,N
1657564935.9,286046998.9,N
1657564955.8,286046999.0,N
1657564975.6,286046998.9,N
1657564995.4,286047001.1,N
1657565015.3,286046998.5,N
1657565035.1,286047001.2,N
1657565055.9,286047000.8,N
1657565075.7,286046999.4,N
1657565095.5,286046998.3,N
1657565115.4,286046999.4,N
1657565135.2,286046996.9,N
1657565155.0,286046997.6,N
1657565155.9,286046997.6,N
1657565175.8,286046997.9,N
1657565195.6,286046997.7,N
1657565215.5,286046996.5,N
1657565235.3,286046999.5,N
1657565255.1,286046999.4,N
1657565275.9,286046999.4,N
1657565295.7,286047000.1,N
1657565315.5,286047002.3,N
1657565335.4,286047000.1,N
1657565355.2,286047002.8,N
1657565375.1,286047000.4,N
1657565376.0,286047000.4,N
1657565395.8,286047000.9,N
1657565415.6,286046999.8,N
1657565435.5,286047002.6,N
1657565455.3,286047001.8,N
1657565475.1,286047005.9,Y
1657565495.9,286047002.9,P
1657565515.7,286047003.3,N
1657565535.6,286047005.8,P
1657565555.4,286047005.8,N
1657565575.2,286047006.6,N
1657565595.1,286047005.1,N
1657565596.0,286047005.1,N
1657565615.8,286047004.6,N
1657565635.6,286047003.3,N
1657565655.5,286047004.1,N
1657565675.3,286047003.7,N
1657565695.2,286047003.5,N
1657565715.9,286047004.1,N
1657565735.7,286047003.9,N
1657565755.6,286047004.1,N
1657565775.4,286047002.6,N
1657565795.2,286047001.4,N
1657565815.1,286047004.4,N
1657565816.0,286047004.4,N
1657565835.8,286047001.3,N
1657565855.7,286047002.5,N
1657565875.5,286047000.7,N
1657565895.3,286046995.0,Y
1657565915.2,286046990.5,P
1657565935.0,286046991.3,N
1657565935.9,286046991.3,N
1657565955.7,286046991.1,N
1657565975.6,286046991.2,N
1657565995.4,286046991.3,N
